Date String (YYYY-MM-DD hh:mm:ss) UTC,Instrument flags,Ambient pressure (hPa),Sample flow (lpm),Bypass flow (lpm),Sample temperature (°C),Ambient temperature (°C),ASC tube jacket temperature (°C),LED temperature (°C),Box temperature (°C),Sample RH (%),Span deviation,Mass concentration (μg/m³),Mass concentration (μg/m³),Mass concentration (μg/m³)
DateTimeUTC,F1_M11,P_M11,Q1_M11,Q2_M11,T1_M11,T2_M11,T3_M11,T4_M11,T5_M11,U1_M11,ZSPAN_M11,X0_M11,X2_M11,X1_M11
2022-05-31 19:00:00,,0827.6,4.99,0.00,27.6,26.6,00.0,36.4,29.5,17.8,0000.0,0006.70,0002.31,0001.32
2022-05-31 19:01:00,,0827.7,5.00,0.00,27.6,26.6,00.0,36.4,29.5,17.8,0000.0,0006.49,0002.31,0001.33
2022-05-31 19:02:00,,0827.2,4.99,0.00,27.6,26.6,00.0,36.4,29.5,17.7,0000.0,0006.24,0002.28,0001.34
2022-05-31 19:03:00,,0827.5,5.01,0.00,27.6,26.6,00.0,36.5,29.5,17.9,0000.0,0006.79,0002.35,0001.34
2022-05-31 19:04:00,,0827.4,5.00,0.00,27.6,26.6,00.0,36.5,29.5,17.4,0000.0,0006.84,0002.33,0001.35
2022-05-31 19:05:00,,0827.7,4.99,0.00,27.6,26.6,00.0,36.5,29.5,17.6,0000.0,0006.21,0002.26,0001.33
2022-05-31 19:06:00,,0827.5,5.02,0.00,27.6,26.6,00.0,36.5,29.5,17.8,0000.0,0004.91,0002.20,0001.31
2022-05-31 19:07:00,,0827.5,5.00,0.00,27.6,26.6,00.0,36.5,29.5,18.7,0000.0,0005.00,0002.17,0001.28
2022-05-31 19:08:00,,0827.6,5.00,0.00,27.6,26.6,00.0,36.5,29.5,18.9,0000.0,0005.10,0002.15,0001.26
2022-05-31 19:09:00,,0827.4,5.00,0.00,27.6,26.6,00.0,36.5,29.5,18.8,0000.0,0004.88,0002.07,0001.24
2022-05-31 19:10:00,,0827.4,5.00,0.00,27.6,26.6,00.0,36.5,29.5,18.8,0000.0,0004.77,0002.06,0001.24
2022-05-31 19:11:00,,0827.4,5.01,0.00,27.6,26.5,00.0,36.5,29.4,19.1,0000.0,0004.67,0002.04,0001.23
2022-05-31 19:12:00,,0827.5,4.99,0.00,27.6,26.5,00.0,36.5,29.5,18.4,0000.0,0005.58,0002.07,0001.23
2022-05-31 19:13:00,,0827.2,4.99,0.00,27.6,26.5,00.0,36.5,29.4,19.0,0000.0,0005.64,0002.06,0001.23
2022-05-31 19:14:00,,0827.3,5.01,0.00,27.6,26.5,00.0,36.5,29.4,19.2,0000.0,0005.20,0001.95,0001.22
2022-05-31 19:15:00,,0827.4,5.01,0.00,27.6,26.5,00.0,36.5,29.4,18.5,0000.0,0005.05,0001.94,0001.22
2022-05-31 19:16:00,,0827.7,5.01,0.00,27.6,26.5,00.0,36.5,29.4,18.6,0000.0,0005.18,0001.95,0001.22
2022-05-31 19:17:00,,0827.2,4.99,0.00,27.5,26.4,00.0,36.5,29.4,18.6,0000.0,0005.72,0001.97,0001.23
2022-05-31 19:18:00,,0827.2,5.00,0.00,27.5,26.4,00.0,36.5,29.4,18.6,0000.0,0005.39,0001.97,0001.23
2022-05-31 19:19:00,,0827.4,4.99,0.00,27.5,26.4,00.0,36.5,29.4,17.9,0000.0,0005.12,0001.98,0001.23
2022-05-31 19:20:00,,0827.6,5.00,0.00,27.5,26.4,00.0,36.5,29.4,18.7,0000.0,0005.22,0002.03,0001.24
2022-05-31 19:21:00,,0827.4,5.00,0.00,27.5,26.4,00.0,36.5,29.4,19.2,0000.0,0005.27,0002.05,0001.23
2022-05-31 19:22:00,,0827.3,5.01,0.00,27.5,26.4,00.0,36.5,29.4,18.8,0000.0,0005.25,0002.01,0001.22
2022-05-31 19:23:00,,0827.2,5.00,0.00,27.5,26.3,00.0,36.4,29.4,19.2,0000.0,0004.31,0001.97,0001.22
2022-05-31 19:24:00,,0827.5,5.00,0.00,27.5,26.3,00.0,36.4,29.4,18.3,0000.0,0004.44,0002.06,0001.24
2022-05-31 19:25:00,,0827.3,5.00,0.00,27.5,26.3,00.0,36.4,29.3,18.4,0000.0,0005.20,0002.09,0001.25
2022-05-31 19:26:00,,0827.2,5.00,0.00,27.5,26.3,00.0,36.4,29.3,18.1,0000.0,0006.49,0002.13,0001.26
2022-05-31 19:27:00,,0827.5,5.00,0.00,27.5,26.3,00.0,36.4,29.3,18.3,0000.0,0006.43,0002.14,0001.27
2022-05-31 19:28:00,,0827.5,5.00,0.00,27.5,26.2,00.0,36.4,29.3,17.6,0000.0,0005.81,0002.09,0001.27
2022-05-31 19:29:00,,0827.2,5.00,0.00,27.5,26.3,00.0,36.4,29.3,17.0,0000.0,0006.05,0002.14,0001.28
2022-05-31 19:30:00,,0827.1,5.00,0.00,27.5,26.3,00.0,36.4,29.3,18.5,0000.0,0006.17,0002.13,0001.28
2022-05-31 19:31:00,,0827.1,5.00,0.00,27.5,26.2,00.0,36.4,29.3,18.8,0000.0,0006.30,0002.12,0001.28
2022-05-31 19:32:00,,0827.1,4.99,0.00,27.5,26.2,00.0,36.4,29.3,19.3,0000.0,0006.61,0002.12,0001.29
2022-05-31 19:33:00,,0827.1,5.01,0.00,27.4,26.2,00.0,36.4,29.3,18.9,0000.0,0007.41,0002.17,0001.31
2022-05-31 19:34:00,,0827.1,5.01,0.00,27.4,26.2,00.0,36.4,29.3,18.5,0000.0,0007.44,0002.16,0001.33
2022-05-31 19:35:00,,0827.2,5.00,0.00,27.4,26.2,00.0,36.4,29.3,19.8,0000.0,0007.33,0002.09,0001.32
2022-05-31 19:36:00,,0827.1,4.99,0.00,27.4,26.2,00.0,36.4,29.3,20.1,0000.0,0007.07,0002.06,0001.32
2022-05-31 19:37:00,,0827.1,5.00,0.00,27.4,26.2,00.0,36.4,29.3,19.5,0000.0,0005.25,0002.03,0001.33
2022-05-31 19:38:00,,0827.5,5.00,0.00,27.4,26.2,00.0,36.4,29.3,19.6,0000.0,0005.14,0002.03,0001.34
2022-05-31 19:39:00,,0827.1,5.00,0.00,27.4,26.2,00.0,36.4,29.3,20.0,0000.0,0005.30,0002.08,0001.36
2022-05-31 19:40:00,,0827.2,4.99,0.00,27.4,26.2,00.0,36.3,29.3,19.6,0000.0,0005.21,0002.06,0001.37
2022-05-31 19:41:00,,0827.5,5.00,0.00,27.4,26.1,00.0,36.3,29.2,20.1,0000.0,0005.04,0002.05,0001.38
2022-05-31 19:42:00,,0827.6,5.00,0.00,27.4,26.1,00.0,36.3,29.2,20.2,0000.0,0005.34,0002.03,0001.38
2022-05-31 19:43:00,,0827.3,5.00,0.00,27.4,26.1,00.0,36.3,29.3,20.4,0000.0,0005.49,0001.98,0001.38
2022-05-31 19:44:00,,0827.5,5.01,0.00,27.4,26.2,00.0,36.3,29.3,20.6,0000.0,0004.68,0001.96,0001.40
2022-05-31 19:45:00,,0827.3,5.00,0.00,27.4,26.2,00.0,36.3,29.3,21.1,0000.0,0004.68,0002.02,0001.42
2022-05-31 19:46:00,,0827.3,4.99,0.00,27.4,26.1,00.0,36.3,29.3,20.9,0000.0,0005.15,0002.07,0001.44
2022-05-31 19:47:00,,0827.4,5.01,0.00,27.4,26.2,00.0,36.3,29.2,21.4,0000.0,0005.25,0002.09,0001.46
2022-05-31 19:48:00,,0827.4,4.99,0.00,27.4,26.2,00.0,36.3,29.2,21.6,0000.0,0005.26,0002.10,0001.48
2022-05-31 19:49:00,,0827.7,4.99,0.00,27.4,26.2,00.0,36.3,29.2,21.9,0000.0,0005.24,0002.10,0001.50
2022-05-31 19:50:00,,0827.6,5.02,0.00,27.4,26.2,00.0,36.3,29.2,18.5,0000.0,0005.18,0002.11,0001.53
2022-05-31 19:51:00,,0827.4,5.00,0.00,27.4,26.2,00.0,36.3,29.2,17.5,0000.0,0005.22,0002.15,0001.57
2022-05-31 19:52:00,,0827.3,5.00,0.00,27.4,26.2,00.0,36.3,29.3,18.5,0000.0,0005.36,0002.20,0001.60
2022-05-31 19:53:00,,0827.6,4.99,0.00,27.4,26.2,00.0,36.3,29.3,18.5,0000.0,0004.98,0002.24,0001.64
2022-05-31 19:54:00,,0827.4,5.00,0.00,27.4,26.2,00.0,36.3,29.3,19.4,0000.0,0004.79,0002.28,0001.67
2022-05-31 19:55:00,,0827.5,5.00,0.00,27.4,26.2,00.0,36.3,29.2,20.5,0000.0,0005.06,0002.30,0001.70
2022-05-31 19:56:00,,0827.4,5.00,0.00,27.4,26.2,00.0,36.3,29.2,20.9,0000.0,0004.89,0002.35,0001.71
2022-05-31 19:57:00,,0827.3,4.99,0.00,27.4,26.2,00.0,36.3,29.2,20.9,0000.0,0004.55,0002.37,0001.72
2022-05-31 19:58:00,,0827.3,5.00,0.00,27.4,26.2,00.0,36.3,29.2,20.6,0000.0,0004.60,0002.43,0001.74
2022-05-31 19:59:00,,0827.3,5.00,0.00,27.4,26.2,00.0,36.3,29.2,21.0,0000.0,0004.78,0002.53,0001.76
